Other Surface Observations
Issued by NWS

Home | Current Version | Previous Version | Text Only | Print | Product List | Glossary On
Versions: 1 2 3 4 5 6 7 8 9 10 11 12 13 14 15 16 17 18 19 20 21 22 23 24 25 26 27 28 29 30 31 32 33 34 35 36 37 38 39 40 41 42 43 44 45 46 47 48 49 50
000
SXUS52 KTAE 021605
OSOTAE
OSOTAE
North Florida/South Alabama/Southwest Georgia Weather Roundup
National Weather Service Tallahassee Florida
1200 PM EDT WED SEP 02 2015

Note: "fair" indicates few or no clouds below 12,000 feet with no
significant weather and/or obstructions to visibility.

!FLZ017-115-028-034-025-021700
...North Florida...

CITY           SKY/WX    TMP DP  RH WIND       PRES   REMARKS
TALLAHASSEE    PTSUNNY   87  73  62 VRB3      30.07S HX  94
APALACHICOLA   MOSUNNY   86  78  77 S5        30.07S HX  98
PERRY          PTSUNNY   83  75  75 W3        30.08S HX  91
CROSS CITY       N/A     86  78  77 SW7       30.07R HX  98
JACKSONVILLE   CLOUDY    86  75  69 S6        30.07F HX  95
$$

!FLZ112-006-005-002-011-021700
...Florida Panhandle...

CITY           SKY/WX    TMP DP  RH WIND       PRES   REMARKS
MARIANNA       SUNNY     89  73  59 MISG      30.06F HX  97
BONIFAY        NOT AVBL
PANAMA CITY NW FAIR      92  71  50 NW8       30.06S HX  98
TYNDALL AFB    SUNNY     89  74  61 VRB3      30.07S HX  97
TYND DRONE APT NOT AVBL
DE FUNIAK SPR  FAIR      88  71  56 NW5       30.08F HX  93
EGLIN AFB      NOT AVBL
DESTIN         SUNNY     92  66  42 VRB6      30.07F HX  94
HURLBURT       NOT AVBL
CRESTVIEW      SUNNY     90  71  53 NW5       30.09S HX  96
PENSACOLA      SUNNY     90  64  42 N6        30.08S HX  91
$$

!ALZ063-066-021700
...South Alabama...

CITY           SKY/WX    TMP DP  RH WIND       PRES   REMARKS
DOTHAN         MOSUNNY   88  72  58 E7        30.12S HX  94
OZARK CAIRNS   NOT AVBL
FT RUCKER HELI MOSUNNY   92  70  48 VRB5      30.07S HX  97
RUCKER HELI 3  NOT AVBL
RUCKER HELI 2  NOT AVBL
FLORALA APT    SUNNY     90  69  50 N3        30.10S HX  94
ANDALUSIA      NOT AVBL
TROY           MOSUNNY   92  70  48 N6        30.10S HX  97
EUFALA         FAIR      89  74  60 N6        30.09S HX  98
MOBILE         PTSUNNY   89  65  44 E3        30.09S HX  91
$$

!GAZ120>161-021700
...Southwest and South Central Georgia...

CITY           SKY/WX    TMP DP  RH WIND       PRES   REMARKS
THOMASVILLE    PTSUNNY   81  72  74 N3        30.09S
BAINBRIDGE     MOSUNNY   88  73  62 N5        30.08S HX  96
MOODY AFB      LGT RAIN  77  75  94 NE7       30.07S
VALDOSTA       CLOUDY    80  76  87 VRB3      30.07S
MOULTRIE       PTSUNNY   82  72  69 N6        30.08F
BLAKELY        MOSUNNY   90  75  62 E6        30.09S HX 100
ALBANY         PTSUNNY   87  73  62 CALM      30.10F HX  94
TIFTON         CLOUDY    80  70  71 E6        30.10S
FITZGERALD     CLOUDY    86  73  65 E3        30.12F HX  92
CORDELE        LGT RAIN  79  76  91 CALM      30.12F
AMERICUS       FAIR      82  73  74 SE5       30.13S
HOMERVILLE     DRIZZLE   79  79 100 E6        30.08F
$$

!GMZ750-755-770-775-021700
...Coastal and Buoy Obs...

STATION/POSITION TIME  TEMP    WIND        PRES    VSBY  WAVE
                       AIR SEA DIR/SP/G                  HT/PER
                 (UTC) (F)     (DEG/KT/KT) (MB)    (MI)  (FT/S)
KEATON BEACH     1600   80     290/  8/ 10 1018.6R
CEDAR KEY        1500   84     250/  6/  9 1019.0F
C TOWER          1600   81      20/  1/  2 1018.5S
APALACHICOLA BUO 1550   84 86  280/  2/  4 1019.0F         2/ 5
PANAMA CITY BUOY 1450   84 86   50/  4/  6 1019.0          1/ 5
MOBILE BUOY      1550   84 87  100/  8/ 10 1018.8F         1/ 5
ORANGE BCH AL BU 1550   83 85   30/  4/  6 1018.3R         1/ 6
$$



USA.gov is the U.S. government's official web portal to all federal, state and local government web resources and services.